TimePDT,TemperatureF,Dew PointF,Humidity,Sea Level PressureIn,VisibilityMPH,Wind Direction,Wind SpeedMPH,Gust SpeedMPH,PrecipitationIn,Events,Conditions,WindDirDegrees,DateUTC
12:53 AM,53.1,50.0,89,30.04,10.0,Calm,Calm,-,N/A,,Clear,0,2012-10-30 07:53:00
1:53 AM,52.0,48.9,89,30.05,10.0,Calm,Calm,-,N/A,,Clear,0,2012-10-30 08:53:00
2:53 AM,53.1,48.9,86,30.04,10.0,Calm,Calm,-,N/A,,Clear,0,2012-10-30 09:53:00
3:53 AM,53.1,50.0,89,30.03,10.0,Calm,Calm,-,N/A,,Clear,0,2012-10-30 10:53:00
4:53 AM,52.0,48.9,89,30.04,10.0,Calm,Calm,-,N/A,,Clear,0,2012-10-30 11:53:00
5:53 AM,51.1,48.9,92,30.04,10.0,Calm,Calm,-,N/A,,Clear,0,2012-10-30 12:53:00
6:53 AM,50.0,48.0,93,30.04,10.0,Calm,Calm,-,N/A,,Clear,0,2012-10-30 13:53:00
7:53 AM,50.0,46.0,86,30.05,10.0,Calm,Calm,-,N/A,,Clear,0,2012-10-30 14:53:00
8:53 AM,54.0,48.9,83,30.06,10.0,Calm,Calm,-,N/A,,Clear,0,2012-10-30 15:53:00
9:53 AM,57.9,52.0,81,30.06,10.0,Calm,Calm,-,N/A,,Clear,0,2012-10-30 16:53:00
10:53 AM,61.0,53.1,75,30.04,10.0,Calm,Calm,-,N/A,,Clear,0,2012-10-30 17:53:00
11:53 AM,66.9,53.1,61,30.03,10.0,Calm,Calm,-,N/A,,Clear,0,2012-10-30 18:53:00
12:53 PM,70.0,52.0,53,30.01,10.0,Calm,Calm,-,N/A,,Clear,0,2012-10-30 19:53:00
1:53 PM,71.1,51.1,49,29.99,10.0,SSW,4.6,-,N/A,,Clear,200,2012-10-30 20:53:00
2:53 PM,71.1,51.1,49,29.97,10.0,Calm,Calm,-,N/A,,Clear,0,2012-10-30 21:53:00
3:53 PM,73.0,51.1,46,29.96,10.0,Calm,Calm,-,N/A,,Clear,0,2012-10-30 22:53:00
4:53 PM,71.1,51.1,49,29.93,10.0,ENE,4.6,-,N/A,,Clear,60,2012-10-30 23:53:00
5:53 PM,68.0,53.1,59,29.92,10.0,Calm,Calm,-,N/A,,Clear,0,2012-10-31 00:53:00
6:53 PM,66.0,53.1,63,29.92,10.0,Calm,Calm,-,N/A,,Clear,0,2012-10-31 01:53:00
7:53 PM,62.1,52.0,70,29.93,10.0,Calm,Calm,-,N/A,,Clear,0,2012-10-31 02:53:00
8:53 PM,61.0,52.0,72,29.92,10.0,Calm,Calm,-,N/A,,Clear,0,2012-10-31 03:53:00
9:53 PM,57.9,51.1,78,29.93,10.0,Calm,Calm,-,N/A,,Clear,0,2012-10-31 04:53:00
10:53 PM,57.0,51.1,81,29.93,10.0,NNW,3.5,-,N/A,,Clear,340,2012-10-31 05:53:00
11:53 PM,55.0,50.0,83,29.92,10.0,Calm,Calm,-,N/A,,Clear,0,2012-10-31 06:53:00